N2DJ Weather Reports


time (UTC)temp
C
wind
direction
speed
KPH
gust
KPH
rain 1hr
cm
rain 24hr
cm
rain mn
cm
humidity
%
barometer
mb
20260507151522 10 316 6.4 16.1 0.00 0.08 0.00 66 1013.3
20260507150021 9 308 3.2 8.0 0.00 0.13 0.00 66 1013.3
20260507144516 9 269 1.6 8.0 0.00 0.13 0.00 67 1013.4
20260507143029 8 289 0.0 11.3 0.00 0.13 0.00 69 1013.4
20260507141509 8 294 1.6 11.3 0.00 0.13 0.00 68 1013.4
20260507140006 8 258 3.2 11.3 0.00 0.15 0.00 69 1013.5
20260507134617 7 204 1.6 11.3 0.00 0.15 0.00 73 1013.7
20260507133109 7 67 0.0 8.0 0.00 0.15 0.00 74 1013.7
20260507131607 6 108 0.0 9.7 0.00 0.15 0.00 75 1013.9
20260507130048 6 95 1.6 6.4 0.00 0.15 0.00 80 1014.0
20260507124544 5 99 3.2 9.7 0.00 0.20 0.00 90 1014.0
20260507123045 3 59 1.6 4.8 0.00 0.20 0.00 97 1014.0
20260507121544 3 53 1.6 4.8 0.00 0.20 0.00 97 1014.0
20260507120038 3 24 0.0 3.2 0.00 0.20 0.00 97 1014.2
20260507114536 3 304 0.0 0.0 0.00 0.28 0.00 97 1014.3
20260507113036 3 304 0.0 3.2 0.00 0.28 0.00 97 1014.4
20260507111533 4 300 0.0 0.0 0.00 0.28 0.00 98 1014.2
20260507110030 4 300 0.0 0.0 0.00 0.28 0.00 97 1013.9
20260507104528 4 300 0.0 0.0 0.00 0.33 0.00 98 1013.4
20260507103027 3 300 0.0 0.0 0.00 0.33 0.00 97 1013.5
20260507101524 3 300 0.0 0.0 0.00 0.33 0.00 98 1013.2
20260507100029 3 300 0.0 0.0 0.00 0.33 0.00 98 1013.3
20260507094523 3 300 0.0 0.0 0.00 0.48 0.00 97 1013.4
20260507093022 3 300 0.0 0.0 0.00 0.48 0.00 97 1013.2
20260507091523 3 300 0.0 0.0 0.00 0.48 0.00 97 1013.3
20260507090022 3 300 0.0 0.0 0.00 0.48 0.00 97 1013.2
20260507084520 3 300 0.0 0.0 0.00 0.66 0.00 97 1013.2
20260507083019 3 300 0.0 0.0 0.00 0.66 0.00 97 1013.2
20260507081520 2 300 0.0 0.0 0.00 0.66 0.00 97 1013.4
20260507080017 2 300 0.0 0.0 0.00 0.89 0.00 96 1013.2
20260507074516 3 300 0.0 0.0 0.00 0.89 0.00 97 1013.2
20260507073015 3 300 0.0 0.0 0.00 0.89 0.00 96 1012.9
20260507071523 3 300 0.0 0.0 0.00 0.89 0.00 96 1013.1
20260507070013 3 300 0.0 0.0 0.00 1.04 0.00 96 1013.1
20260507064510 3 300 0.0 0.0 0.00 1.04 0.00 96 1013.1
20260507063006 4 300 0.0 0.0 0.00 1.04 0.00 96 1013.4
20260507061505 5 300 0.0 0.0 0.00 1.04 0.00 96 1013.5
20260507060002 5 300 0.0 0.0 0.00 1.22 0.00 96 1013.6
20260507054500 5 300 0.0 0.0 0.00 1.22 0.00 97 1013.6
20260507053110 5 300 0.0 1.6 0.00 1.22 0.00 96 1013.7
20260507051608 5 300 0.0 1.6 0.00 1.22 0.00 96 1013.7
20260507050056 5 300 0.0 3.2 0.00 1.22 0.00 96 1014.0
20260507044558 5 300 0.0 1.6 0.00 1.35 0.00 96 1013.9
20260507043056 5 300 0.0 0.0 0.00 1.35 0.00 96 1014.1
20260507041554 5 300 0.0 1.6 0.00 1.35 0.00 96 1013.9
20260507040051 5 300 0.0 0.0 0.00 1.35 0.00 96 1014.0
20260507034551 5 300 0.0 0.0 0.00 1.40 1.35 96 1013.9
20260507033050 5 300 0.0 0.0 0.00 1.40 1.35 96 1013.9
20260507031550 5 300 0.0 1.6 0.00 1.40 1.35 96 1014.0
20260507030049 5 301 0.0 1.6 0.00 1.40 1.35 96 1014.1
20260507024548 5 301 0.0 1.6 0.00 1.55 1.35 96 1013.9
20260507023048 5 301 0.0 0.0 0.00 1.55 1.35 96 1013.8
20260507021547 5 301 0.0 1.6 0.00 1.55 1.35 96 1014.0
20260507020100 5 301 0.0 3.2 0.00 1.55 1.35 96 1014.2
20260507014548 5 321 0.0 1.6 0.00 1.63 1.35 95 1014.3
20260507013045 5 321 0.0 0.0 0.00 1.63 1.35 95 1014.2
20260507011545 5 321 0.0 0.0 0.00 1.63 1.35 95 1013.9
20260507010057 5 321 0.0 1.6 0.00 1.63 1.35 95 1013.9
20260507004540 5 321 0.0 1.6 0.00 1.93 1.35 95 1013.6
20260507003040 6 321 0.0 0.0 0.00 1.93 1.35 94 1013.3
20260507001539 6 321 0.0 0.0 0.00 1.93 1.35 94 1013.2
20260507000037 5 321 0.0 1.6 0.00 1.93 1.35 94 1013.2
20260506234537 5 321 0.0 4.8 0.00 2.24 1.35 94 1013.1
20260506233037 6 321 0.0 4.8 0.00 2.24 1.35 95 1013.2
20260506231544 5 336 0.0 6.4 0.00 2.24 1.35 95 1013.0
20260506230041 5 9 1.6 8.0 0.00 2.24 1.35 95 1012.7
20260506224538 5 310 3.2 9.7 0.00 2.57 1.35 95 1012.6
20260506223031 5 329 4.8 12.9 0.00 2.57 1.35 95 1012.3
20260506221530 5 320 3.2 14.5 0.03 2.57 1.35 95 1012.1
20260506220035 5 311 4.8 16.1 0.05 2.57 1.35 95 1011.9
20260506214527 5 331 4.8 19.3 0.08 3.17 1.35 95 1012.1
20260506213027 5 322 6.4 20.9 0.08 3.17 1.35 94 1011.9
20260506211529 6 313 8.0 17.7 0.05 3.15 1.32 93 1011.5
20260506210024 6 324 6.4 22.5 0.03 3.61 1.30 92 1011.3
20260506204516 8 286 9.7 20.9 0.00 3.58 1.27 90 1010.8
20260506203016 9 313 8.0 24.1 0.00 3.58 1.27 87 1010.7
20260506201526 10 179 1.6 6.4 0.00 3.58 1.27 87 1010.3
20260506200013 10 256 0.0 6.4 0.00 3.58 1.27 87 1010.5
20260506194513 10 228 0.0 6.4 0.00 3.58 1.27 86 1010.4
20260506193013 10 217 0.0 6.4 0.00 3.58 1.27 87 1010.3
20260506191512 10 173 0.0 4.8 0.00 3.58 1.27 87 1010.5
20260506190015 10 173 0.0 3.2 0.00 3.58 1.27 87 1010.3
20260506184519 10 173 1.6 6.4 0.00 3.58 1.27 88 1010.3
20260506183009 10 101 0.0 6.4 0.00 3.58 1.27 89 1010.1
20260506181506 9 117 1.6 6.4 0.00 3.58 1.27 90 1010.4
20260506180004 9 115 0.0 4.8 0.00 3.58 1.27 91 1010.4
20260506174502 8 115 0.0 3.2 0.00 3.58 1.27 91 1010.3
20260506173002 8 115 0.0 1.6 0.00 3.58 1.27 92 1010.6
20260506171609 8 115 0.0 3.2 0.00 3.58 1.27 92 1010.6
20260506170100 8 115 0.0 4.8 0.00 3.58 1.27 93 1010.6
20260506164558 8 96 1.6 6.4 0.00 3.58 1.27 93 1010.4
20260506163107 8 94 3.2 9.7 0.00 3.58 1.27 93 1010.1
20260506161558 8 79 1.6 4.8 0.00 3.58 1.27 93 1010.4
20260506160108 8 91 1.6 4.8 0.00 3.58 1.27 94 1010.4
20260506154555 8 92 0.0 3.2 0.00 3.58 1.27 95 1010.1
20260506153053 8 92 1.6 9.7 0.00 3.58 1.27 95 1010.4